Location: *
(46.3500°N, 10.9000°E)
Time: 10:20:45
(UTC+00:00)

Cosmos 1603 - Pass Details

Date: 09 April 2020
Orbit: 831 x 859 km, 71.0° (Epoch: 25 May)

Event Time Altitude Azimuth Distance (km) Brightness Sun altitude
Rises 18:15:29 0° 211° (SSW) 3,375 7.0 -4.0°
Reaches altitude 10° 18:17:56 10° 214° (SSW) 2,441 6.4 -4.4°
Maximum altitude 18:23:31 71° 298° (WNW) 880 4.1 -5.3°
Drops below altitude 10° 18:29:07 10° 23° (NNE) 2,449 6.1 -6.3°
Sets 18:31:35 0° 26° (NNE) 3,386 6.8 -6.7°
